LUR-1

导读 | 星芒AI

LUR-1 是一颗由俄罗斯研制的科学实验卫星,主要用于研究地球电离层和空间环境。该卫星搭载多种科学仪器,以监测宇宙射线、太阳辐射及其对大气层的影响。LUR-1 项目旨在提升对近地空间物理过程的理解,并为通信和导航系统的稳定性提供数据支持。

基本信息
目录编号:
60506
目录名称:
LUR-1
国际标识:
2024-149AQ
轨道中心:
EARTH
卫星名称:
LUR-1
卫星全名:
LUR-1
卫星状态:
在轨 (已飞行486 天)
发射日期:
2024-08-16 UTC
国别 :
西班牙 (ES)
星等 :
--
轨道信息
数据来源 国际轨道数据
星历时间: 2025-12-15T01:16:35+0800
1天前
查看轨道信息
半长轴: 6862.7km
偏心率: 0.0003169
轨道倾角: 97.394°
近地点辐角 225.825°
升交点赤经 64.109°
平近点角 134.273°
近地点: 482.39km
远地点: 486.74km
周期: 94.298分钟
每日圈数: 15.270747
详细信息
使用方式:
暂无
2D轨道图
3D轨道图
轨道高度分析图
轨道倾角分析图
轨道综合分析图
查看轨道综合分析图